[[{"header":{"parameterUnit":"m.s-1","parameterCategory":1,"la1":30.2991,"la2":30.254,"lo1":-89.0895,"lo2":-89.0444,"dy":0.0017,"dx":0.0017,"nx":28,"ny":28,"refTime":"2023-08-07T09:00:00:Z","depth":0,"parameterNumber":2,"parameterNumberName":"U-component_of_WINDS"},"data":[0,0,0,0,0,0,0,0,0,0,0,0,0,0,0,0,0,0,0,0,0,0,0,0,0,0,0,0,0,0,0,0,0,0,0,0,0,0,0,0,0,0,0,0,0,0,0,0,0,0,0,0,0,0,0,0,0,0,0.5698,0.57,0,0.5847,0.5849,0.585,0.592,0.592,0.592,0.592,0.6072,0.6076,0.608,0,0,0,0,0,0,0,0,0,0,0,0,0,0.5472,0.5475,0.5698,0.57,0.5702,0.5847,0.5849,0.5851,0.592,0.592,0.592,0.592,0.607,0.6075,0.608,0,0,0,0,0,0,0,0,0,0,0,0,0,0.559,0.5477,0.5698,0.5754,0.576,0.5846,0.5849,0.5851,0.592,0.592,0.592,0.592,0.6069,0.6075,0.6081,0.6122,0,0,0.61,0.6103,0,0,0,0,0,0,0,0,0.5583,0.5598,0.5744,0.575,0.5757,0.5865,0.5825,0.5942,0.592,0.5859,0.592,0.592,0.6003,0.6015,0.6043,0.6129,0.6136,0.6101,0.6104,0.6107,0.6109,0,0,0,0,0,0,0,0.5575,0.5592,0.5757,0.5746,0.5754,0.5771,0.5788,0.5847,0.593,0.5865,0.587,0.5887,0.6007,0.6037,0.6047,0.6138,0.61,0.6106,0.611,0.6112,0.6266,0.6266,0,0,0,0,0,0,0.5558,0.5585,0.5752,0.5761,0.5668,0.5775,0.5794,0.5831,0.593,0.5945,0.5887,0.589,0.6026,0.604,0.6053,0.6108,0.6107,0.6113,0.6116,0.6266,0.6266,0.6266,0,0,0,0,0,0,0.5553,0.5572,0.5746,0.5675,0.5698,0.5779,0.582,0.5834,0.5864,0.5947,0.5962,0.5902,0.6027,0.6044,0.6105,0.6114,0.6116,0.6121,0.6265,0.6266,0.6266,0.6218,0,0,0,0,0,0,0.5546,0.557,0.5587,0.5675,0.5702,0.5796,0.5821,0.5837,0.5874,0.5879,0.5965,0.5979,0.6028,0.6095,0.6111,0.6123,0.6126,0.6265,0.6265,0.6266,0.6219,0.6217,0.6215,0,0,0,0,0,0.5538,0.5567,0.5587,0.5607,0.5725,0.5796,0.5812,0.5867,0.5875,0.5892,0.5945,0.5976,0.611,0.61,0.6119,0.6133,0.6264,0.6265,0.6266,0.622,0.6217,0.6215,0,0,0,0,0,0,0.5478,0.558,0.5603,0.5662,0.572,0.5808,0.5832,0.5863,0.592,0.5922,0.5988,0.6007,0.6062,0.6103,0.6091,0.6178,0.619,0.6195,0.6149,0.6147,0.6145,0.6134,0.6131,0,0,0,0,0,0.5472,0.5522,0.5608,0.5651,0.5679,0.575,0.5783,0.5821,0.5884,0.5909,0.5966,0.6025,0.6081,0.6116,0.6172,0.6225,0.6245,0.6244,0.6242,0.6239,0.6243,0.6274,0.6275,0.6269,0.6269,0.6269,0,0,0.5459,0.5521,0.5549,0.5641,0.569,0.574,0.577,0.5822,0.586,0.5916,0.5978,0.6021,0.6092,0.6149,0.6177,0.6186,0.6249,0.624,0.6238,0.6243,0.6275,0.6275,0.6276,0.627,0.627,0.6269,0,0,0.5463,0.5514,0.5557,0.5605,0.568,0.5726,0.5736,0.5819,0.5851,0.5913,0.5957,0.6002,0.6096,0.6145,0.6181,0.6202,0.6232,0.6218,0.6207,0.6237,0.6237,0.6238,0.6246,0.6247,0.6221,0.6221,0.622,0,0.5438,0.5516,0.5574,0.5624,0.5663,0.5716,0.5759,0.5803,0.5891,0.5917,0.5925,0.6044,0.6095,0.6165,0.6169,0.6197,0.6211,0.6209,0.6232,0.6234,0.6235,0.6243,0.6246,0.6218,0.6219,0.6219,0.6219,0,0.5481,0.5534,0.5559,0.5644,0.5686,0.5731,0.5796,0.5831,0.5865,0.5911,0.5973,0.6036,0.6105,0.6124,0.6158,0.6198,0.6201,0.622,0.6234,0.6233,0.6241,0.6245,0.6215,0.6216,0.6217,0.6217,0,0,0.5453,0.5568,0.5576,0.5615,0.5701,0.5743,0.579,0.5858,0.5887,0.5946,0.5987,0.6065,0.6083,0.6125,0.6164,0.619,0.6202,0.6205,0.6208,0.6203,0.6251,0.6236,0.6239,0.6222,0.6223,0.6224,0.6245,0,0.5468,0.5557,0.5611,0.5677,0.5727,0.5778,0.5819,0.5876,0.5919,0.5967,0.6015,0.607,0.6089,0.6114,0.6142,0.6194,0.6212,0.6194,0.6262,0.6264,0.6244,0.6244,0.6229,0.6246,0.6248,0.6249,0.625,0,0.5498,0.5556,0.5628,0.5708,0.573,0.5767,0.5833,0.5878,0.5943,0.5973,0.6019,0.6058,0.611,0.6119,0.6191,0.6177,0.6208,0.6238,0.624,0.6249,0.6257,0.6253,0.6253,0.6255,0.6255,0.6255,0.6254,0,0.547,0.5566,0.5622,0.5653,0.5747,0.5772,0.5812,0.5877,0.5914,0.5971,0.5996,0.6059,0.6093,0.614,0.6195,0.6196,0.6262,0.6275,0.6289,0.6287,0.6301,0.63,0.6306,0.6319,0.6319,0.6319,0.6319,0,0.5483,0.5525,0.5611,0.5645,0.5693,0.5754,0.58,0.5844,0.5901,0.5944,0.5991,0.6031,0.6101,0.6148,0.6191,0.6245,0.626,0.6286,0.6297,0.6282,0.6279,0.6304,0.6304,0.632,0.632,0.632,0.632,0,0.546,0.552,0.5583,0.5667,0.5689,0.5721,0.5793,0.5827,0.5873,0.5927,0.5943,0.6015,0.6074,0.6133,0.6212,0.6241,0.6293,0.6308,0.6272,0.6278,0.6288,0.6287,0.6312,0.6318,0.6326,0.6326,0.6325,0,0.5465,0.5498,0.5586,0.5618,0.5657,0.5709,0.5747,0.5808,0.5846,0.5921,0.5947,0.6009,0.6062,0.6154,0.6213,0.6273,0.629,0.6295,0.63,0.6284,0.6291,0.6289,0.6293,0.6293,0.6293,0.6292,0.6292,0,0.5466,0.5494,0.5547,0.5611,0.5655,0.5708,0.5763,0.5786,0.5857,0.5897,0.5958,0.5999,0.608,0.6141,0.6208,0.625,0.6283,0.629,0.6296,0.6282,0.626,0.6272,0.6267,0.6289,0.629,0.629,0.629,0.629,0.5458,0.549,0.5557,0.5615,0.5662,0.5712,0.5749,0.5799,0.5851,0.5921,0.5953,0.6014,0.6078,0.6172,0.6212,0.6261,0.6269,0.6279,0.6281,0.6283,0.6279,0.6251,0.6273,0.6273,0.6273,0.6273,0.6273,0,0.5463,0.5508,0.556,0.5635,0.5681,0.5708,0.5769,0.5805,0.5858,0.5915,0.5966,0.6035,0.6095,0.6158,0.6221,0.6247,0.6264,0.6262,0.6261,0.627,0.6268,0.6256,0.6247,0.6247,0.6247,0.6247,0.6247,0.6247,0.547,0.5526,0.5561,0.5641,0.5686,0.5746,0.5779,0.5825,0.5871,0.5946,0.5996,0.6036,0.6096,0.6163,0.6219,0.6236,0.6257,0.625,0.6272,0.6268,0.627,0.6272,0.6262,0.6254,0.6254,0.6271,0.6271,0.6271]},{"header":{"parameterUnit":"m.s-1","parameterCategory":1,"la1":30.2991,"la2":30.254,"lo1":-89.0895,"lo2":-89.0444,"dy":0.0017,"dx":0.0017,"nx":28,"ny":28,"refTime":"2023-08-07T09:00:00:Z","depth":0,"parameterNumber":3,"parameterNumberName":"V-component_of_WINDS"},"data":[0,0,0,0,0,0,0,0,0,0,0,0,0,0,0,0,0,0,0,0,0,0,0,0,0,0,0,0,0,0,0,0,0,0,0,0,0,0,0,0,0,0,0,0,0,0,0,0,0,0,0,0,0,0,0,0,0,0,4.461,4.4609,0,4.4546,4.4546,4.4545,4.4476,4.4475,4.4474,4.4473,4.4403,4.4402,4.4401,0,0,0,0,0,0,0,0,0,0,0,0,0,4.4669,4.4668,4.461,4.4609,4.4608,4.4546,4.4546,4.4545,4.4476,4.4475,4.4474,4.4473,4.4404,4.4402,4.4401,0,0,0,0,0,0,0,0,0,0,0,0,0,4.4628,4.4668,4.461,4.4567,4.4562,4.4547,4.4545,4.4544,4.4476,4.4475,4.4473,4.4472,4.4404,4.4402,4.4401,4.4421,0,0,4.4397,4.4396,0,0,0,0,0,0,0,0,4.463,4.4626,4.4574,4.457,4.4565,4.4518,4.4541,4.4503,4.4477,4.4509,4.4473,4.4471,4.4442,4.4437,4.4429,4.4418,4.4415,4.4397,4.4396,4.4395,4.4395,0,0,0,0,0,0,0,4.4633,4.4628,4.4585,4.4573,4.4568,4.4549,4.4542,4.4533,4.4484,4.4506,4.4501,4.4494,4.4439,4.443,4.4426,4.4414,4.4397,4.4395,4.4394,4.4394,4.4417,4.4419,0,0,0,0,0,0,4.4643,4.4631,4.4587,4.4583,4.4595,4.455,4.4541,4.4534,4.4484,4.4475,4.4496,4.4491,4.4433,4.4428,4.4424,4.4444,4.4395,4.4394,4.4393,4.4416,4.4418,4.4419,0,0,0,0,0,0,4.4645,4.464,4.4589,4.4605,4.4598,4.455,4.4543,4.4534,4.4524,4.4477,4.4467,4.4496,4.4432,4.4426,4.4423,4.4441,4.4393,4.4392,4.4414,4.4416,4.4418,4.4486,0,0,0,0,0,0,4.4647,4.4641,4.4649,4.4606,4.4597,4.4591,4.4544,4.4533,4.4523,4.4517,4.4474,4.4465,4.443,4.4425,4.4422,4.4438,4.4391,4.4412,4.4415,4.4418,4.4481,4.449,4.4497,0,0,0,0,0,4.4649,4.4669,4.465,4.4645,4.4606,4.4592,4.4586,4.4547,4.4525,4.4532,4.4501,4.4467,4.444,4.4426,4.4421,4.4437,4.4411,4.4414,4.4418,4.4478,4.4488,4.4497,0,0,0,0,0,0,4.4713,4.4663,4.464,4.4648,4.4625,4.458,4.4588,4.4559,4.4541,4.4535,4.4486,4.4477,4.448,4.4458,4.4443,4.4454,4.442,4.4423,4.4468,4.4477,4.4485,4.449,4.439,0,0,0,0,0,4.4729,4.4722,4.4678,4.4689,4.4679,4.4636,4.4628,4.46,4.4573,4.4563,4.4532,4.4507,4.4492,4.4484,4.4468,4.4479,4.4468,4.4487,4.4495,4.4502,4.4504,4.4508,4.4516,4.443,4.443,4.443,0,0,4.4759,4.4731,4.473,4.4701,4.468,4.4673,4.4628,4.4623,4.4617,4.4561,4.4557,4.4534,4.4502,4.4507,4.4507,4.4488,4.4526,4.4506,4.4511,4.451,4.4512,4.452,4.4527,4.4432,4.4432,4.4432,0,0,4.4812,4.4791,4.4797,4.4778,4.4747,4.4719,4.4721,4.4681,4.4664,4.4659,4.4618,4.461,4.4586,4.4566,4.4552,4.4599,4.4567,4.4596,4.4635,4.464,4.4646,4.4652,4.4668,4.4675,4.4598,4.4598,4.4599,0,4.4854,4.4844,4.4804,4.4802,4.479,4.4742,4.4748,4.473,4.4696,4.4688,4.4669,4.4639,4.4614,4.4613,4.4625,4.4616,4.4615,4.4599,4.4649,4.4654,4.4659,4.4674,4.468,4.4602,4.4602,4.4601,4.4601,0,4.4896,4.489,4.4899,4.4869,4.4858,4.486,4.482,4.4814,4.4787,4.476,4.4756,4.4726,4.4703,4.4701,4.4674,4.4696,4.4685,4.4658,4.4623,4.4671,4.4685,4.469,4.4607,4.4606,4.4605,4.4604,0,0,4.4986,4.4935,4.4939,4.4925,4.4889,4.4883,4.4882,4.4862,4.4858,4.4836,4.4834,4.4816,4.4791,4.4776,4.4746,4.4751,4.479,4.4723,4.4721,4.4736,4.4812,4.4832,4.4839,4.4769,4.477,4.4771,4.4814,0,4.5032,4.503,4.4994,4.5002,4.4995,4.495,4.495,4.4927,4.4903,4.4893,4.4865,4.4853,4.4822,4.4812,4.4815,4.4785,4.4804,4.4781,4.4765,4.4765,4.4774,4.4846,4.4867,4.491,4.4819,4.482,4.4821,0,4.5084,4.5068,4.5075,4.504,4.5036,4.5036,4.5015,4.5007,4.498,4.4962,4.4946,4.4914,4.491,4.4878,4.4872,4.4857,4.4849,4.4833,4.4834,4.483,4.4795,4.4843,4.4922,4.4929,4.4828,4.4828,4.4827,0,4.5149,4.5128,4.513,4.5119,4.5078,4.508,4.5062,4.5034,4.5025,4.5006,4.4999,4.498,4.4969,4.4954,4.4917,4.4897,4.4915,4.488,4.4898,4.49,4.4903,4.4903,4.4981,4.4899,4.4899,4.4899,4.4899,0,4.5203,4.5209,4.5158,4.5159,4.5165,4.5124,4.513,4.5108,4.5084,4.508,4.5039,4.5035,4.4987,4.4977,4.4948,4.4947,4.4942,4.4927,4.4919,4.493,4.4932,4.4923,4.4919,4.4901,4.49,4.49,4.49,0,4.5275,4.5241,4.524,4.5202,4.5193,4.5198,4.5165,4.5164,4.5138,4.5133,4.5129,4.5087,4.5074,4.5036,4.5013,4.4993,4.5,4.4986,4.501,4.5005,4.5026,4.5024,4.51,4.5107,4.5022,4.5023,4.5023,0,4.5311,4.5315,4.5278,4.5273,4.5258,4.525,4.524,4.5201,4.5192,4.5163,4.5165,4.515,4.5134,4.5115,4.5082,4.5064,4.5048,4.5076,4.5045,4.5057,4.5048,4.5048,4.5048,4.5083,4.5084,4.5085,4.5085,0,4.5379,4.5363,4.5351,4.5335,4.5325,4.531,4.5292,4.529,4.5245,4.5238,4.5225,4.5214,4.5191,4.5175,4.5152,4.5133,4.5102,4.5096,4.5099,4.511,4.5124,4.5116,4.5028,4.5094,4.5093,4.5092,4.5092,4.5092,4.5433,4.5435,4.541,4.5399,4.5382,4.5367,4.5364,4.5339,4.5328,4.5307,4.5284,4.5274,4.5247,4.5214,4.5197,4.5188,4.5171,4.5176,4.5177,4.5178,4.5184,4.5127,4.5183,4.5183,4.5183,4.5182,4.5182,0,4.5499,4.5481,4.5472,4.5449,4.544,4.5414,4.5393,4.5387,4.538,4.5358,4.5345,4.5331,4.5316,4.5282,4.5264,4.5263,4.5248,4.526,4.5259,4.5255,4.52,4.5199,4.5272,4.5272,4.5272,4.5272,4.5272,4.5272,4.5532,4.5534,4.5515,4.5508,4.5489,4.548,4.5471,4.5456,4.5439,4.5425,4.5413,4.5393,4.5366,4.5346,4.5331,4.5321,4.5316,4.5332,4.5318,4.5267,4.5258,4.525,4.5249,4.5332,4.5332,4.5373,4.5374,4.5374]}]]